Voltar ao catálogo

STARLINK-34063

AtivoComunicaçõesVLEO
NORAD 64185·PAYLOAD·🇺🇸 United States

Lançado May 28, 2025 de Cape Canaveral Space Force Station

Loading…

Próximas Passagens (próximas 24 horas)

TLE

AtualizadoSource: CelesTrak SupGP

Época: Sep 15, 2026, 02:33 UTC

1 64185C 25113R   26258.10673611  .00015368  00000+0  49378-3 0  2588
2 64185  53.1593 289.8193 0001287  86.9681  23.9458 15.31721142    17

Acompanhe STARLINK-34063 em tempo real com AllMySat

Download on the App Store